TimeEDT,TemperatureF,Dew PointF,Humidity,Sea Level PressureIn,VisibilityMPH,Wind Direction,Wind SpeedMPH,Gust SpeedMPH,PrecipitationIn,Events,Conditions,WindDirDegrees,DateUTC
12:53 AM,75.0,70.0,84,30.04,10.0,SSE,5.8,-,N/A,,Clear,160,2013-08-08 04:53:00
1:53 AM,73.9,70.0,87,30.04,10.0,Calm,Calm,-,N/A,,Clear,0,2013-08-08 05:53:00
2:53 AM,71.1,69.1,93,30.03,10.0,SE,3.5,-,N/A,,Clear,130,2013-08-08 06:53:00
3:53 AM,72.0,69.1,91,30.03,9.0,Calm,Calm,-,N/A,,Clear,0,2013-08-08 07:53:00
4:53 AM,71.1,69.1,93,30.02,6.0,Calm,Calm,-,N/A,,Clear,0,2013-08-08 08:53:00
5:10 AM,69.8,69.8,100,30.04,2.5,Calm,Calm,-,N/A,,Clear,0,2013-08-08 09:10:00
5:21 AM,71.6,69.8,94,30.04,4.0,Calm,Calm,-,N/A,,Clear,0,2013-08-08 09:21:00
5:53 AM,71.1,69.1,93,30.03,2.0,Calm,Calm,-,N/A,,Clear,0,2013-08-08 09:53:00
6:00 AM,69.8,69.8,100,30.05,0.8,Calm,Calm,-,N/A,,Clear,0,2013-08-08 10:00:00
6:05 AM,69.8,69.8,100,30.05,2.0,Calm,Calm,-,N/A,,Clear,0,2013-08-08 10:05:00
6:13 AM,69.8,68.0,94,30.05,5.0,Calm,Calm,-,N/A,,Clear,0,2013-08-08 10:13:00
6:39 AM,69.8,69.8,100,30.06,1.8,Calm,Calm,-,N/A,,Clear,0,2013-08-08 10:39:00
6:48 AM,69.8,68.0,94,30.06,2.0,Calm,Calm,-,N/A,,Clear,0,2013-08-08 10:48:00
6:53 AM,70.0,69.1,97,30.04,3.0,Calm,Calm,-,N/A,,Clear,0,2013-08-08 10:53:00
7:53 AM,73.0,71.1,93,30.04,3.0,Calm,Calm,-,N/A,,Clear,0,2013-08-08 11:53:00
8:00 AM,73.4,71.6,94,30.06,4.0,Calm,Calm,-,N/A,,Scattered Clouds,0,2013-08-08 12:00:00
8:53 AM,77.0,72.0,84,30.05,9.0,Calm,Calm,-,N/A,,Clear,0,2013-08-08 12:53:00
9:53 AM,82.0,72.0,71,30.06,10.0,South,4.6,-,N/A,,Clear,180,2013-08-08 13:53:00
10:53 AM,84.0,70.0,63,30.06,10.0,South,5.8,-,N/A,,Scattered Clouds,180,2013-08-08 14:53:00
11:53 AM,86.0,66.0,51,30.05,10.0,Variable,6.9,-,N/A,,Partly Cloudy,0,2013-08-08 15:53:00
12:53 PM,91.0,64.9,42,30.04,10.0,South,9.2,-,N/A,,Clear,170,2013-08-08 16:53:00
1:53 PM,91.0,64.9,42,30.03,10.0,Calm,Calm,-,N/A,,Scattered Clouds,0,2013-08-08 17:53:00
2:53 PM,91.9,64.0,39,30.02,10.0,West,4.6,-,N/A,,Scattered Clouds,280,2013-08-08 18:53:00
3:53 PM,91.9,62.1,37,29.99,10.0,South,3.5,-,N/A,,Partly Cloudy,180,2013-08-08 19:53:00
4:53 PM,93.0,63.0,37,29.98,10.0,SSW,6.9,-,N/A,,Clear,210,2013-08-08 20:53:00
5:53 PM,91.9,64.0,39,29.99,10.0,Variable,3.5,-,N/A,,Clear,0,2013-08-08 21:53:00
6:53 PM,89.1,72.0,57,29.99,10.0,South,6.9,-,N/A,,Clear,190,2013-08-08 22:53:00
7:53 PM,86.0,72.0,63,30.00,10.0,South,5.8,-,N/A,,Clear,180,2013-08-08 23:53:00
8:53 PM,82.9,73.0,72,30.01,10.0,South,4.6,-,N/A,,Clear,180,2013-08-09 00:53:00
9:53 PM,81.0,73.0,77,30.03,10.0,South,4.6,-,N/A,,Clear,190,2013-08-09 01:53:00
10:53 PM,80.1,73.9,81,30.02,10.0,South,5.8,-,N/A,,Clear,170,2013-08-09 02:53:00
11:53 PM,79.0,73.9,84,30.03,10.0,South,8.1,-,N/A,,Clear,190,2013-08-09 03:53:00